Location: Newark
(37.9128°N, 122.4756°W)
Time: 04:36:27
(UTC+00:00)

ISS - Pass Details

Date: 20 November 2019
Orbit: 411 x 421 km, 51.6° (Epoch: 09 December)

Event Time Altitude Azimuth Distance (km) Brightness Sun altitude
Rises 01:53:17 0° 185° (S) 2,337 0.3 -11.5°
Reaches altitude 10° 01:56:21 10° 153° (SSE) 1,484 -1.1 -12.1°
Maximum altitude 01:57:46 12° 128° (SE) 1,356 -1.5 -12.3°
Enters shadow 01:58:09 12° 121° (ESE) 1,366 -1.6 -12.4°
